Regional Weather Roundup
Issued by NWS Wilmington, NC

Home | Current Version | Previous Version | Text Only | Print | Product List | Glossary On
Versions: 1 2 3 4 5 6 7 8 9 10 11 12 13 14 15 16 17 18 19 20 21 22 23 24 25 26 27 28 29 30 31 32 33 34 35 36 37 38 39 40 41 42 43 44 45 46 47 48 49 50
000
ASUS42 KILM 041013
RWRILM
RWRILM
REGIONAL HOURLY WEATHER ROUNDUP
NATIONAL WEATHER SERVICE WILMINGTON NC
600 AM EDT SAT JUL 04 2015

NOTE: "FAIR" INDICATES FEW OR NO CLOUDS BELOW 12,000 FEET WITH NO
SIGNIFICANT WEATHER AND/OR OBSTRUCTIONS TO VISIBILITY.

...............WFO WILMINGTON COUNTY WARNING AREA...............

......COASTAL NC AND SC COUNTIES......

CITY           SKY/WX    TMP DP  RH WIND       PRES   REMARKS
WILMINGTON     CLEAR     78  71  79 SW14      29.97R
N MYRTLE BEACH MOCLDY    77  68  73 W13       30.01R
MYRTLE BEACH   NOT AVBL

......INLAND NC AND SC COUNTIES.......

CITY           SKY/WX    TMP DP  RH WIND       PRES   REMARKS
LUMBERTON      PTCLDY    76  69  79 SW12      29.97R
ELIZABETHTOWN  CLEAR     75  72  89 SW8       29.98R
WHITEVILLE     PTCLDY    77  71  83 SW7       29.98S
FLORENCE       LGT RAIN  73  68  84 SW13      30.00R
DARLINGTON     MOCLDY    73  66  78 SW15      30.00R

....................REST OF NORTH CAROLINA......................

.........EASTERN NC.........

CITY           SKY/WX    TMP DP  RH WIND       PRES   REMARKS
CAPE HATTERAS  PTCLDY    76  69  79 W14G24    29.92R
JACKSONVILLE   CLEAR     72  64  78 SW8       29.97R
MOREHEAD CITY  CLOUDY    79  73  82 W15G28    29.96R
KENANSVILLE    CLEAR     71  69  92 SW3       29.97R
NEW BERN       CLEAR     73  69  87 SW9       29.96R
ELIZABETH CITY MOCLDY    74  71  91 SW13G22   29.88R

.........CENTRAL NC.........

CITY           SKY/WX    TMP DP  RH WIND       PRES   REMARKS
RALEIGH DURHAM PTCLDY    70  68  93 SW6       29.94R
ROCKY MOUNT    PTCLDY    71  69  93 SW5       29.93R
ROANOKE RAPIDS NOT AVBL
FAYETTEVILLE   CLEAR     74  69  85 SW10      29.95R
HOFFMAN        MOCLDY    76  69  79 SW12      30.00R

.........WESTERN NC.........

CITY           SKY/WX    TMP DP  RH WIND       PRES   REMARKS
CHARLOTTE      CLOUDY    74  65  73 SW12      29.98R
GREENSBORO     MOCLDY    68  67  96 SW8       29.94R
HICKORY        NOT AVBL
BOONE          NOT AVBL
ASHEVILLE      NOT AVBL

.....................REST OF SOUTH CAROLINA.....................

.........EASTERN SC.........

CITY           SKY/WX    TMP DP  RH WIND       PRES   REMARKS
CHARLESTON     PTCLDY    72  68  87 CALM      30.04S
BEAUFORT MCAS  CLEAR     77  73  87 SW6       30.04S
HILTON HEAD    NOT AVBL

.........CENTRAL SC.........

CITY           SKY/WX    TMP DP  RH WIND       PRES   REMARKS
COLUMBIA       LGT RAIN  71  68  90 W6        30.04R
ORANGEBURG     CLOUDY    70  68  93 S3        30.04R
SUMTER SHAW    CLOUDY    71  67  88 SW12      30.00S

.........WESTERN SC.........

CITY           SKY/WX    TMP DP  RH WIND       PRES   REMARKS
GREENVILLE     NOT AVBL
ROCK HILL      CLOUDY    73  68  84 SW8       29.99R
ANDERSON       CLOUDY    73  68  84 SW14      30.03R
CLEMSON        NOT AVBL
GREENWOOD      LGT RAIN  70  67  90 SW17G25   30.05R


...................COASTAL AND OFFSHORE REPORTS..................

................LOCAL PIERS AND NC RESERVE................


STATION/POSITION TIME  SKY/WX   TEMP    WIND        PRES    VSBY
                                AIR SEA DIR/SP/G
                 (UTC)          (F)     (DEG/KT/KT) (MB)    (MI)
JOHNY MRCER PIER 0900            80 79  230/ 14/ 19 1013.9R
NC RESRV MASNBRO NOT AVBL
OCEAN CREST PIER NOT AVBL
SPRINGMAID  PIER 0900            76 81  240/ 12/ 17 1015.9R


................COASTAL AND OFFSHORE BUOYS................


STATION/POSITION TIME  SKY/WX   TEMP    WIND        PRES    VSBY
                                AIR SEA DIR/SP/G
                 (UTC)          (F)     (DEG/KT/KT) (MB)    (MI)
DIMNDSHOAL 41025 0950            81 81  250/ 25/ 31 1012.4R
WVE H/P(F/S)=  9/ 7 WND WVE H/P(F/S)=  8/ 7 SWL H/P/D(F/S/D)=  2/340/15

CAPE LOOKOUT     1000            80     240/ 14/ 20 1014.3R
ONSLOW BAY 41036 NOT AVBL
5 WRITEBCH 41038 0908            80 78  240/ 21/ 27 1014.1R
MASONBORO  41110 0919               78                N/A
WVE H/P(F/S)=  4/ 5 WND WVE H/P(F/S)=  3/ 5

WILM HARBR 41108 0911               81                N/A
WVE H/P(F/S)=  6/ 6 WND WVE H/P(F/S)=  7/ 6

27WRITEBCH 41037 0900               80  250/ 23/ 27   N/A
FRYING PAN 41013 0950            81 79  230/ 23/ 27 1016.5R
WVE H/P(F/S)=  6/ 6 WND WVE H/P(F/S)=  7/ 6

SUNST NRSH 41024 0908            80     250/ 23/ 29 1014.8R
CAPRS NRSH 41029 0908            80     230/  8/ 10 1017.2R
EDISTO     41004 0950            82 81  220/ 19/ 23 1016.5R
WVE H/P(F/S)=  6/ 6 WND WVE H/P(F/S)=  5/ 6 SWL H/P/D(F/S/D)=  2/ 9



..........OFFSHORE BUOYS BEYOND 100 NM OFFSHORE...........
.....IN A TRIANGLE---HAT TO BERMUDA TO BAHAMAS TO HAT.....


STATION/POSITION TIME  SKY/WX   TEMP    WIND        PRES    VSBY
                                AIR SEA DIR/SP/G
                 (UTC)          (F)     (DEG/KT/KT) (MB)    (MI)
150E HAT   41001 NOT AVBL
W BERMUDA  41048 0950            80 81  200/ 12/ 14 1021.4S
WVE H/P(F/S)=  4/ 8 WND WVE H/P(F/S)=  3/ 5 SWL H/P/D(F/S/D)=  3/280/ 8

ATLANTIC S 41049 0950            82 83  110/  8/  8 1024.3R
WVE H/P(F/S)=  4/ 7 WND WVE H/P(F/S)=  2/ 4 SWL H/P/D(F/S/D)=  3/110/ 7

E BAHAMAS  41046 0950            82 83  120/ 16/ 19 1020.7R
WVE H/P(F/S)=  5/ 8 WND WVE H/P(F/S)=  3/ 6 SWL H/P/D(F/S/D)=  3/120/ 8

NE BAHAMAS 41047 0950            82 83  150/  8/ 10 1021.2R
WVE H/P(F/S)=  4/ 9 WND WVE H/P(F/S)=  2/ 4 SWL H/P/D(F/S/D)=  3/130/ 9

120E CANVRL41010 0920            83 84  190/  8/ 12 1019.2S

END


USA.gov is the U.S. government's official web portal to all federal, state and local government web resources and services.